TimeMST,TemperatureF,Dew PointF,Humidity,Sea Level PressureIn,VisibilityMPH,Wind Direction,Wind SpeedMPH,Gust SpeedMPH,PrecipitationIn,Events,Conditions,WindDirDegrees,DateUTC
12:53 AM,37.9,26.1,62,30.20,10.0,North,9.2,-,N/A,,Overcast,350,2012-11-15 07:53:00
1:53 AM,37.0,25.0,62,30.24,10.0,NNW,8.1,-,N/A,,Clear,330,2012-11-15 08:53:00
2:53 AM,33.1,24.1,70,30.29,10.0,West,4.6,-,N/A,,Scattered Clouds,270,2012-11-15 09:53:00
3:53 AM,34.0,23.0,64,30.30,10.0,NW,12.7,-,N/A,,Overcast,320,2012-11-15 10:53:00
4:53 AM,34.0,24.1,67,30.32,10.0,NW,10.4,-,N/A,,Overcast,320,2012-11-15 11:53:00
5:53 AM,34.0,25.0,70,30.34,10.0,NW,6.9,-,N/A,,Overcast,310,2012-11-15 12:53:00
6:53 AM,28.9,23.0,78,30.38,10.0,West,4.6,-,N/A,,Overcast,270,2012-11-15 13:53:00
7:53 AM,33.1,25.0,72,30.40,10.0,West,3.5,-,N/A,,Mostly Cloudy,260,2012-11-15 14:53:00
8:53 AM,37.9,25.0,60,30.40,10.0,WNW,6.9,-,N/A,,Partly Cloudy,290,2012-11-15 15:53:00
9:53 AM,43.0,27.0,53,30.40,10.0,Variable,3.5,-,N/A,,Clear,0,2012-11-15 16:53:00
10:53 AM,46.0,26.1,46,30.38,10.0,WSW,4.6,-,N/A,,Clear,240,2012-11-15 17:53:00
11:53 AM,48.0,26.1,42,30.35,10.0,SSE,4.6,-,N/A,,Clear,160,2012-11-15 18:53:00
12:53 PM,50.0,25.0,38,30.32,10.0,SSE,11.5,-,N/A,,Clear,160,2012-11-15 19:53:00
1:53 PM,50.0,24.1,36,30.30,10.0,South,8.1,-,N/A,,Clear,170,2012-11-15 20:53:00
2:53 PM,50.0,24.1,36,30.30,10.0,SE,11.5,-,N/A,,Clear,140,2012-11-15 21:53:00
3:53 PM,48.0,26.1,42,30.31,10.0,SE,8.1,-,N/A,,Clear,140,2012-11-15 22:53:00
4:53 PM,43.0,26.1,51,30.32,10.0,SE,10.4,-,N/A,,Clear,140,2012-11-15 23:53:00
5:53 PM,39.0,26.1,60,30.35,10.0,SSE,8.1,-,N/A,,Clear,150,2012-11-16 00:53:00
6:53 PM,37.9,27.0,65,30.37,10.0,SSE,6.9,-,N/A,,Clear,150,2012-11-16 01:53:00
7:53 PM,36.0,28.0,73,30.35,10.0,SSE,6.9,-,N/A,,Clear,150,2012-11-16 02:53:00
8:53 PM,35.1,28.0,76,30.33,10.0,SE,10.4,-,N/A,,Clear,130,2012-11-16 03:53:00
9:53 PM,34.0,28.0,79,30.32,10.0,SSE,4.6,-,N/A,,Clear,160,2012-11-16 04:53:00
10:53 PM,35.1,28.0,76,30.28,10.0,ESE,9.2,-,N/A,,Clear,120,2012-11-16 05:53:00
11:53 PM,35.1,28.0,76,30.27,10.0,SE,10.4,-,N/A,,Clear,140,2012-11-16 06:53:00